Orbital Elements at Epoch 2459200.5 (2020-Dec-17.0) TDB
Reference: JPL 22 (heliocentric ecliptic J2000)
Element | Value | Uncertainty (1-sigma) | Units |
e | .1494224717653316 | 5.2286e-08 | |
a | 2.480725927514535 | 8.4155e-09 | au |
q | 2.110049727652968 | 1.2871e-07 | au |
i | 4.732434305570309 | 5.3391e-06 | deg |
node | 77.66377881960683 | 4.8611e-05 | deg |
peri | 348.5682322733409 | 5.193e-05 | deg |
M | 5.887262318009297 | 1.5019e-05 | deg |
tp | 2459177.161255384597 (2020-Nov-23.66125538) | 5.9572e-05 | TDB |
period | 1427.140087820324 3.91 | 7.2621e-06 1.988e-08 | d yr |
n | .2522527417401814 | 1.2836e-09 | deg/d |
Q | 2.851402127376101 | 9.673e-09 | au |
|
| | Orbit Determination Parameters
Additional Information
|